Weather History for Point Salines Airport, Grenada

Change the Weather History Date:

Sunday, August 18, 2013

  Actual Average Record
Temperature  
Mean Temperature 80 °F -  
Max Temperature 85 °F 85 °F - ()
Min Temperature 75 °F 76 °F - ()
Cooling Degree Days 15    
Growing Degree Days 30 (Base 50)    
Moisture  
Dew Point 77 °F    
Average Humidity 92    
Maximum Humidity 100    
Minimum Humidity 79    
Precipitation  
Precipitation 0.39 in - - ()
Sea Level Pressure  
Sea Level Pressure 29.89 in    
Wind  
Wind Speed 5 mph ()    
Max Wind Speed 14 mph    
Max Gust Speed -    
Visibility 6.0 miles    
Events Rain , Thunderstorm    
T = Trace of Precipitation, MM = Missing Value Source: Averaged Metar Reports

Daily Weather History Graph

Daily Weather History Graph

Search for Another Location

Airport:

Trip Planner

Search our weather history database for the weather conditions in past years. The results will help you decide how hot, cold, wet, or windy it might be!

Date:

Astronomy

Aug. 18, 2013 Rise Set
Actual Time 5:56 AM AST 6:25 PM AST
Civil Twilight 5:34 AM AST 6:47 PM AST
Nautical Twilight 5:08 AM AST 7:12 PM AST
Astronomical Twilight 4:43 AM AST 7:38 PM AST
Moon 4:17 PM AST (8/18) 3:15 AM AST (8/18)
Length of Visible Light 13h 12m
Length of Day
12h 29m
Waxing Gibbous, 92% of the Moon is Illuminated
Aug 18
Waxing Gibbous
Aug 20
Full
Aug 28
Last Quarter
Sep 5
New
Sep 12
First Quarter

Hourly Weather History & Observations

Time (AST) Temp. Heat Index Dew Point Humidity Pressure Visibility Wind Dir Wind Speed Gust Speed Precip Events Conditions
12:00 AM 80.6 °F 87.1 °F 77.0 °F 89% 29.92 in 6.2 mi East 6.9 mph - N/A   Scattered Clouds
1:00 AM 80.6 °F 87.1 °F 77.0 °F 89% 29.89 in 6.2 mi Calm Calm - N/A   Scattered Clouds
2:00 AM 81 °F - 78 °F 88% 29.88 in 12 mi Calm Calm - -   Mostly Cloudy
2:00 AM 80.6 °F 88.1 °F 78.8 °F 94% 29.86 in 6.2 mi Calm Calm - N/A   Mostly Cloudy
2:30 AM 77.0 °F - 77.0 °F 100% 29.86 in 1.9 mi East 11.5 mph - N/A Rain Heavy Rain Showers
3:00 AM 77.0 °F - 77.0 °F 100% 29.86 in 5.0 mi Variable 2.3 mph - N/A Rain Light Rain Showers
4:00 AM 77.0 °F - 77.0 °F 100% 29.89 in 5.0 mi ESE 11.5 mph - N/A Rain Light Rain Showers
5:00 AM 77 °F - 76 °F 96% 29.88 in 6 mi ENE 6.9 mph - - Rain Light Rain
5:00 AM 77.0 °F - 77.0 °F 100% 29.86 in 6.2 mi ENE 6.9 mph - N/A   Scattered Clouds
6:00 AM 77.0 °F - 77.0 °F 100% 29.89 in 6.2 mi Calm Calm - N/A   Scattered Clouds
7:00 AM 78.8 °F - 78.8 °F 100% 29.92 in 6.2 mi Calm Calm - N/A   Mostly Cloudy
8:00 AM 82 °F - 78 °F 85% 29.94 in 7 mi ESE 6.9 mph - -   Mostly Cloudy
8:00 AM 82.4 °F 92.4 °F 78.8 °F 89% 29.92 in 6.2 mi ESE 6.9 mph - N/A   Mostly Cloudy
9:00 AM 80.6 °F 88.1 °F 78.8 °F 94% 29.95 in 6.2 mi Variable 2.3 mph - N/A   Mostly Cloudy
10:00 AM 80.6 °F 87.1 °F 77.0 °F 89% 29.95 in 6.2 mi Variable 2.3 mph - N/A   Mostly Cloudy
11:00 AM 83 °F - 78 °F 79% 29.94 in 6 mi ESE 6.9 mph - -   Scattered Clouds
11:00 AM 82.4 °F 90.9 °F 77.0 °F 84% 29.95 in 6.2 mi ESE 6.9 mph - N/A   Mostly Cloudy
12:00 PM 84.2 °F 94.1 °F 77.0 °F 79% 29.92 in 6.2 mi SSE 10.4 mph - N/A   Mostly Cloudy
1:00 PM 84.2 °F 96.1 °F 78.8 °F 84% 29.92 in 6.2 mi Variable 2.3 mph - N/A   Mostly Cloudy
1:28 PM 77.0 °F - 77.0 °F 100% 29.89 in 3.1 mi NNW 9.2 mph - N/A Rain Rain Showers
2:00 PM 79 °F - 78 °F 95% 29.89 in 3 mi NNW 5.8 mph - - Rain Light Rain Showers
2:00 PM 78.8 °F - 77.0 °F 94% 29.89 in 3.1 mi NNW 5.8 mph - N/A Rain Light Rain Showers
3:00 PM 82.4 °F 92.4 °F 78.8 °F 89% 29.86 in 6.2 mi NNW 8.1 mph - N/A   Scattered Clouds
4:00 PM 78.8 °F - 77.0 °F 94% 29.83 in 1.9 mi NNW 5.8 mph - N/A Rain Light Rain Showers
4:27 PM 80.6 °F 87.1 °F 77.0 °F 89% 29.83 in 6.2 mi Calm Calm - N/A Rain Light Rain Showers
5:00 PM 80 °F - 78 °F 93% 29.85 in 6 mi North 5.8 mph - -   Mostly Cloudy
5:00 PM 80.6 °F 88.1 °F 78.8 °F 94% 29.83 in 6.2 mi North 5.8 mph - N/A   Scattered Clouds
6:00 PM 80.6 °F 88.1 °F 78.8 °F 94% 29.86 in 6.2 mi NE 8.1 mph - N/A Rain Light Rain Showers
7:00 PM 78.8 °F - 77.0 °F 94% 29.86 in 6.2 mi NNE 9.2 mph - N/A   Scattered Clouds
8:00 PM 79 °F - 76 °F 89% 29.90 in 5 mi NE 8.1 mph - -   Partly Cloudy
8:00 PM 78.8 °F - 77.0 °F 94% 29.89 in 6.2 mi NE 8.1 mph - N/A   Scattered Clouds
9:00 PM 78.8 °F - 77.0 °F 94% 29.89 in 6.2 mi North 5.8 mph - N/A Rain , Thunderstorm Light Rain Showers
10:00 PM 80.6 °F 87.1 °F 77.0 °F 89% 29.92 in 6.2 mi NNE 13.8 mph - N/A   Scattered Clouds
11:00 PM - - 77 °F % 29.91 in 16 mi NE 11.5 mph - -  
11:00 PM 80.6 °F 87.1 °F 77.0 °F 89% 29.89 in 6.2 mi NE 11.5 mph - N/A   Scattered Clouds